Location: Madrid
(40.4000°N, 3.6830°W)
Time: 15:20:07
(UTC+02:00)

ISS - Pass Details

Date: 20 September 2019
Orbit: 411 x 421 km, 51.6° (Epoch: 18 September)

Event Time Altitude Azimuth Distance (km) Brightness Sun altitude
Rises 21:18:44 0° 227° (SW) 2,331 0.6 -12.7°
Reaches altitude 10° 21:20:48 10° 226° (SW) 1,472 -0.5 -13.1°
Maximum altitude 21:24:06 73° 142° (SE) 432 -3.9 -13.7°
Enters shadow 21:26:17 20° 59° (ENE) 1,034 -2.2 -14.1°
